This demonstration page uses our WeatherBlox Daily Observations layout. Learn more.

39.92423, -83.80882

Hourly Observations for December 16, 2018

Temp ( °F °C ) Dew Point ( °F °C ) Humidity (%) Winds ( mph kmh ) Pressure ( in mb ) Visibility ( mi km ) Precip ( " mm )
12:06 am 00:06 Cloudy with Mist and Fog 39 4 39 4 100 100 NNE 12 19 29.94 1014 4 6.43736 0 0
12:56 am 00:56 Cloudy with Mist and Fog 40 4.4 40 4.4 100 100 NNE 10 17 29.94 1014 5 8.0467 0 0
1:56 am 01:56 Cloudy with Mist and Fog 41 5 40 4.4 96 96 N 8 13 29.94 1014 6 9.65604 0 0
2:18 am 02:18 Cloudy with Mist and Fog 41 5 39 4 93 93 N 9 15 29.97 1015 6 9.65604 0 0
2:56 am 02:56 Cloudy with Mist and Fog 40 4.4 40 4.4 100 100 NNW 8 13 29.96 1015 6 9.65604 0 0
3:56 am 03:56 Cloudy 40 4.4 40 4.4 100 100 N 8 13 29.96 1015 8 12.87472 0 0
4:56 am 04:56 Cloudy 40 4.4 39 3.9 97 97 N 9 15 29.97 1015 7 11.26538 0 0
5:23 am 05:23 Cloudy with Mist and Fog 39 4 39 4 100 100 N 10 17 29.97 1015 2.5 4.02335 0 0
5:48 am 05:48 Cloudy with Light Rain 39 4 39 4 100 100 NNW 9 15 30 1016 1.75 2.816345 0 0.0254
5:56 am 05:56 Cloudy with Light Rain 40 4.4 40 4.4 100 100 NW 9 15 29.99 1016 1.5 2.41401 0 0.0254
6:56 am 06:56 Cloudy with Light Rain 39 3.9 39 3.9 100 100 NNW 12 19 30 1016 1.75 2.816345 0 0.0254
7:09 am 07:09 Cloudy with Light Rain 39 4 39 4 100 100 N 9 15 30 1016 2 3.21868 0 0.0254
7:40 am 07:40 Cloudy with Light Rain 37 3 37 3 100 100 NNW 10 17 30.03 1017 1.75 2.816345 0 0.0254
7:49 am 07:49 Cloudy with Light Rain 37 3 37 3 100 100 NNW 12 19 30.03 1017 2 3.21868 0 0.0254
7:56 am 07:56 Cloudy with Mist and Fog 38 3.3 38 3.3 100 100 NNW 12 19 30.03 1017 1.75 2.816345 0 0.0254
8:52 am 08:52 Cloudy with Mist and Fog 37 3 37 3 100 100 NNW 9 15 30.09 1019 1 1.60934 0 0.0254
8:56 am 08:56 Cloudy with Mist and Fog 38 3.3 38 3.3 100 100 NNW 8 13 30.05 1018 1 1.60934 0 0.0254
9:07 am 09:07 Cloudy with Mist and Fog 37 3 37 3 100 100 NNW 7 11 30.09 1019 0.75 1.207005 0 0
9:31 am 09:31 Cloudy with Mist and Fog 37 3 37 3 100 100 N 10 17 30.09 1019 1.25 2.011675 0 0
9:56 am 09:56 Cloudy with Mist and Fog 38 3.3 38 3.3 100 100 NNW 7 11 30.07 1018 1.5 2.41401 0 0
10:09 am 10:09 Cloudy with Mist and Fog 37 3 37 3 100 100 NW 8 13 30.12 1020 1 1.60934 0 0
10:28 am 10:28 Cloudy with Mist and Fog 39 4 39 4 100 100 NW 9 15 30.09 1019 1.25 2.011675 0 0
10:48 am 10:48 Cloudy with Mist and Fog 39 4 39 4 100 100 NW 7 11 30.09 1019 2.5 4.02335 0 0
10:56 am 10:56 Cloudy with Mist and Fog 39 3.9 39 3.9 100 100 WNW 6 9 30.08 1019 2.5 4.02335 0 0
11:37 am 11:37 Cloudy with Mist and Fog 39 4 39 4 100 100 WNW 9 15 30.09 1019 3 4.82802 0 0
11:56 am 11:56 Cloudy with Mist and Fog 40 4.4 40 4.4 100 100 NW 10 17 30.07 1018 3 4.82802 0 0
12:16 pm 12:16 Cloudy with Mist and Fog 39 4 39 4 100 100 NW 6 9 30.06 1018 2.5 4.02335 0 0
12:46 pm 12:46 Cloudy with Mist and Fog 39 4 39 4 100 100 NW 8 13 30.06 1018 1.25 2.011675 0 0
12:56 pm 12:56 Cloudy with Mist and Fog 40 4.4 40 4.4 100 100 WNW 14 22 30.05 1018 1.25 2.011675 0 0
1:16 pm 13:16 Cloudy with Mist and Fog 41 5 41 5 100 100 NW 8 13 30.06 1018 2 3.21868 0 0
1:43 pm 13:43 Cloudy with Mist and Fog 41 5 41 5 100 100 W 7 11 30.03 1017 1.75 2.816345 0 0
2:27 pm 14:27 Cloudy with Mist and Fog 39 4 39 4 100 100 W 10 17 30.06 1018 1 1.60934 0 0
2:35 pm 14:35 Cloudy with Mist and Fog 41 5 41 5 100 100 WNW 10 17 30.06 1018 1.5 2.41401 0 0
2:56 pm 14:56 Cloudy with Mist and Fog 40 4.4 40 4.4 100 100 WNW 14 22 30.06 1018 2 3.21868 0 0
3:08 pm 15:08 Cloudy with Mist and Fog 39 4 39 4 100 100 WNW 9 15 30.06 1018 3 4.82802 0 0
3:22 pm 15:22 Cloudy with Mist and Fog 39 4 39 4 100 100 WNW 8 13 30.06 1018 2.5 4.02335 0 0
3:39 pm 15:39 Cloudy with Mist and Fog 41 5 39 4 93 93 W 8 13 30.06 1018 3 4.82802 0 0
3:56 pm 15:56 Cloudy with Mist and Fog 41 5 41 5 100 100 W 8 13 30.06 1018 3 4.82802 0 0
4:56 pm 16:56 Cloudy with Mist and Fog 42 5.6 41 5 96 96 WNW 10 17 30.09 1019 4 6.43736 0 0
5:12 pm 17:12 Cloudy with Mist and Fog 43 6 41 5 93 93 W 6 9 30.09 1019 4 6.43736 0 0
6:17 pm 18:17 Mostly Clear with Mist and Fog 37 3 37 3 100 100 SW 5 7 30.12 1020 2.5 4.02335 0 0
6:45 pm 18:45 Mostly Clear with Mist and Fog 37 3 37 3 100 100 SW 5 7 30.12 1020 1.5 2.41401 0 0
6:56 pm 18:56 Clear with Mist and Fog 38 3.3 38 3.3 100 100 SW 5 7 30.1 1019 1.25 2.011675 0 0
7:03 pm 19:03 Clear with Mist and Fog 37 3 37 3 100 100 SSW 7 11 30.12 1020 1 1.60934 0 0
7:12 pm 19:12 Clear with Mist and Fog 37 3 37 3 100 100 SW 6 9 30.12 1020 1.25 2.011675 0 0
7:17 pm 19:17 Clear with Mist and Fog 37 3 37 3 100 100 SSW 6 9 30.12 1020 0.75 1.207005 0 0
7:27 pm 19:27 Mostly Cloudy with Fog 37 3 37 3 100 100 SW 3 6 30.12 1020 0.25 0.402335 0 0
7:36 pm 19:36 Mostly Cloudy with Fog 37 3 37 3 100 100 SW 7 11 30.12 1020 0.25 0.402335 0 0
7:56 pm 19:56 Cloudy with Fog 39 3.9 39 3.9 100 100 SW 8 13 30.1 1019 0.25 0.402335 0 0
8:07 pm 20:07 Cloudy with Fog 37 3 37 3 100 100 SW 6 9 30.12 1020 0.25 0.402335 0 0
8:56 pm 20:56 Cloudy with Fog 37 2.8 37 2.8 100 100 WSW 8 13 30.11 1020 0.25 0.402335 0 0
9:31 pm 21:31 Mostly Cloudy with Mist and Fog 36 2 36 2 100 100 W 9 15 30.15 1021 0.75 1.207005 0 0
9:34 pm 21:34 Partly Cloudy with Mist and Fog 37 3 37 3 100 100 W 9 15 30.15 1021 1.25 2.011675 0 0
9:49 pm 21:49 Mostly Cloudy with Mist and Fog 37 3 37 3 100 100 W 12 19 30.15 1021 0.75 1.207005 0 0
9:56 pm 21:56 Mostly Cloudy with Fog 37 2.8 37 2.8 100 100 W 9 15 30.11 1020 0.5 0.80467 0 0
9:59 pm 21:59 Mostly Cloudy with Mist and Fog 37 3 37 3 100 100 W 10 17 30.15 1021 1 1.60934 0 0
10:02 pm 22:02 Mostly Clear with Mist and Fog 37 3 37 3 100 100 WSW 9 15 30.15 1021 2 3.21868 0 0
10:09 pm 22:09 Mostly Clear with Mist and Fog 37 3 37 3 100 100 W 9 15 30.15 1021 4 6.43736 0 0
10:56 pm 22:56 Clear 36 2.2 36 2.2 100 100 W 9 15 30.11 1020 9 14.48406 0 0
11:56 pm 23:56 Clear 36 2.2 35 1.7 97 97 WSW 9 15 30.09 1019 10 16.0934 0 0

Powered by AerisWeather